RUK1104 LEPA-EGCC

Flight info

Callsign RUK1104
Flight time 2h 15m
Altitude 38000
Route DRAGO DCT PAPOS DCT UMURE N863 GIROM DCT AGN DCT SECHE DCT UVELI DCT CNA DCT TUPAR UN861 ANG DCT AKIKI UN867 AVANT UM184 HEMEL T420 ELVOS
Aircraft B738/M-SDE3FGILRWY/SB1

Departure

Time 2026-05-07 15:08
Airport Palma de Mallorca Airport (LEPA)

Arrival

Time 2026-05-07 17:23
Airport Manchester Airport (EGCC)
Time Latitude Longitude Altitude Speed Heading
2026-05-07 14:26 39.55001 2.72669 37 ft 0 kts 147°
2026-05-07 14:53 39.55014 2.72658 36 ft 4 kts 147°
2026-05-07 14:54 39.55033 2.72641 35 ft 4 kts 140°
2026-05-07 14:54 39.55047 2.72617 36 ft 4 kts 83°
2026-05-07 14:54 39.55038 2.72588 33 ft 2 kts 59°
2026-05-07 14:54 39.55035 2.72583 37 ft 0 kts 59°
2026-05-07 14:57 39.55036 2.72584 37 ft 2 kts 59°
2026-05-07 14:58 39.55066 2.72647 37 ft 13 kts 59°
2026-05-07 14:58 39.55113 2.72750 37 ft 13 kts 59°
2026-05-07 14:58 39.55159 2.72848 37 ft 13 kts 59°
2026-05-07 14:58 39.55205 2.72945 37 ft 12 kts 58°
2026-05-07 14:59 39.55250 2.73038 37 ft 12 kts 58°
2026-05-07 14:59 39.55294 2.73128 36 ft 12 kts 57°
2026-05-07 14:59 39.55336 2.73216 37 ft 11 kts 60°
2026-05-07 14:59 39.55376 2.73303 37 ft 11 kts 59°
2026-05-07 15:00 39.55416 2.73387 36 ft 11 kts 58°
2026-05-07 15:00 39.55455 2.73469 37 ft 10 kts 59°
2026-05-07 15:00 39.55488 2.73542 37 ft 8 kts 58°
2026-05-07 15:00 39.55482 2.73604 35 ft 8 kts 132°
2026-05-07 15:01 39.55436 2.73646 36 ft 10 kts 149°
2026-05-07 15:01 39.55360 2.73705 37 ft 16 kts 148°
2026-05-07 15:01 39.55257 2.73786 37 ft 18 kts 149°
2026-05-07 15:01 39.55153 2.73868 35 ft 17 kts 148°
2026-05-07 15:02 39.55053 2.73948 37 ft 17 kts 148°
2026-05-07 15:02 39.54958 2.74023 37 ft 16 kts 148°
2026-05-07 15:02 39.54877 2.74087 36 ft 11 kts 149°
2026-05-07 15:02 39.54811 2.74122 37 ft 10 kts 184°
2026-05-07 15:03 39.54761 2.74067 37 ft 11 kts 240°
2026-05-07 15:03 39.54717 2.73972 37 ft 13 kts 239°
2026-05-07 15:03 39.54670 2.73875 36 ft 12 kts 237°
2026-05-07 15:03 39.54625 2.73781 37 ft 12 kts 238°
2026-05-07 15:04 39.54581 2.73689 37 ft 12 kts 238°
2026-05-07 15:04 39.54539 2.73600 37 ft 12 kts 238°
2026-05-07 15:04 39.54498 2.73512 37 ft 11 kts 238°
2026-05-07 15:04 39.54458 2.73427 37 ft 11 kts 238°
2026-05-07 15:05 39.54419 2.73345 37 ft 11 kts 238°
2026-05-07 15:05 39.54380 2.73265 36 ft 10 kts 238°
2026-05-07 15:05 39.54344 2.73189 37 ft 7 kts 238°
2026-05-07 15:05 39.54311 2.73159 37 ft 6 kts 178°
2026-05-07 15:06 39.54278 2.73192 37 ft 6 kts 123°
2026-05-07 15:06 39.54269 2.73245 37 ft 7 kts 91°
2026-05-07 15:06 39.54269 2.73310 37 ft 7 kts 91°
2026-05-07 15:06 39.54262 2.73373 37 ft 7 kts 103°
2026-05-07 15:07 39.54255 2.73428 37 ft 5 kts 88°
2026-05-07 15:07 39.54269 2.73471 37 ft 5 kts 58°
2026-05-07 15:07 39.54299 2.73535 36 ft 20 kts 58°
2026-05-07 15:07 39.54506 2.73973 37 ft 92 kts 58°
2026-05-07 15:08 39.54954 2.74922 40 ft 152 kts 58°
2026-05-07 15:08 39.55546 2.76147 628 ft 159 kts 60°
2026-05-07 15:08 39.56097 2.77330 1582 ft 155 kts 60°
2026-05-07 15:08 39.56660 2.78579 2080 ft 173 kts 61°
2026-05-07 15:09 39.57318 2.80036 2411 ft 195 kts 61°
2026-05-07 15:09 39.58022 2.81583 2886 ft 203 kts 61°
2026-05-07 15:09 39.58746 2.83165 3432 ft 207 kts 61°
2026-05-07 15:09 39.59487 2.84778 4047 ft 209 kts 61°
2026-05-07 15:10 39.60235 2.86409 4646 ft 213 kts 60°
2026-05-07 15:10 39.60999 2.88070 5246 ft 214 kts 61°
2026-05-07 15:10 39.61770 2.89746 5852 ft 217 kts 61°
2026-05-07 15:10 39.62658 2.91309 6400 ft 224 kts 38°
2026-05-07 15:11 39.64157 2.91905 6900 ft 235 kts 357°
2026-05-07 15:11 39.65655 2.91066 7427 ft 243 kts 316°
2026-05-07 15:11 39.66623 2.89228 7783 ft 257 kts 297°
2026-05-07 15:11 39.67364 2.87047 8141 ft 267 kts 292°
2026-05-07 15:12 39.68063 2.84738 8485 ft 286 kts 291°
2026-05-07 15:12 39.68784 2.82307 9241 ft 286 kts 291°
2026-05-07 15:12 39.69497 2.79911 10156 ft 284 kts 290°
2026-05-07 15:12 39.70228 2.77478 10748 ft 291 kts 290°
2026-05-07 15:13 39.70962 2.75051 11426 ft 296 kts 289°
2026-05-07 15:13 39.71728 2.72533 12189 ft 298 kts 290°
2026-05-07 15:13 39.72494 2.70032 12984 ft 299 kts 289°
2026-05-07 15:13 39.73269 2.67498 13721 ft 303 kts 289°
2026-05-07 15:14 39.74053 2.64944 14465 ft 304 kts 290°
2026-05-07 15:14 39.75071 2.62513 15203 ft 308 kts 301°
2026-05-07 15:14 39.76266 2.60187 15905 ft 312 kts 302°
2026-05-07 15:14 39.77467 2.57858 16589 ft 315 kts 302°
2026-05-07 15:15 39.78708 2.55477 17287 ft 318 kts 301°
2026-05-07 15:15 39.79979 2.53092 17958 ft 323 kts 301°
2026-05-07 15:15 39.81277 2.50680 18571 ft 327 kts 301°
2026-05-07 15:15 39.82593 2.48252 19184 ft 329 kts 302°
2026-05-07 15:16 39.83721 2.45728 19775 ft 327 kts 288°
2026-05-07 15:16 39.84487 2.42927 20233 ft 334 kts 283°
2026-05-07 15:16 39.85169 2.39935 20348 ft 352 kts 282°
2026-05-07 15:16 39.85870 2.36788 20473 ft 370 kts 282°
2026-05-07 15:17 39.86623 2.33512 20772 ft 382 kts 283°
2026-05-07 15:17 39.87419 2.30186 21312 ft 386 kts 284°
2026-05-07 15:17 39.88239 2.26850 22015 ft 385 kts 283°
2026-05-07 15:17 39.89058 2.23575 22702 ft 386 kts 283°
2026-05-07 15:18 39.89896 2.20237 23218 ft 390 kts 283°
2026-05-07 15:18 39.90748 2.16854 23677 ft 394 kts 283°
2026-05-07 15:18 39.91605 2.13448 24154 ft 396 kts 283°
2026-05-07 15:18 39.92465 2.10028 24666 ft 397 kts 283°
2026-05-07 15:19 39.93328 2.06591 25171 ft 398 kts 282°
2026-05-07 15:19 39.94190 2.03152 25643 ft 400 kts 282°
2026-05-07 15:19 39.95047 1.99726 26096 ft 402 kts 282°
2026-05-07 15:19 39.95916 1.96247 26545 ft 404 kts 282°
2026-05-07 15:20 39.96794 1.92717 26733 ft 413 kts 281°
2026-05-07 15:20 39.97690 1.89118 27038 ft 418 kts 282°
2026-05-07 15:20 39.98581 1.85543 27507 ft 419 kts 282°
2026-05-07 15:20 39.99487 1.81923 27975 ft 420 kts 283°
2026-05-07 15:21 40.00863 1.78486 28300 ft 439 kts 302°
2026-05-07 15:21 40.03090 1.75655 28699 ft 455 kts 319°
2026-05-07 15:21 40.05912 1.73715 29083 ft 468 kts 332°
2026-05-07 15:21 40.08955 1.72142 29421 ft 472 kts 334°
2026-05-07 15:22 40.12056 1.70622 29685 ft 477 kts 334°
2026-05-07 15:22 40.15181 1.69101 29982 ft 480 kts 334°
2026-05-07 15:22 40.18325 1.67549 30261 ft 482 kts 333°
2026-05-07 15:22 40.21427 1.65990 30535 ft 484 kts 333°
2026-05-07 15:23 40.24583 1.64379 30813 ft 486 kts 333°
2026-05-07 15:23 40.27739 1.62753 31034 ft 489 kts 332°
2026-05-07 15:23 40.30916 1.61108 31308 ft 490 kts 332°
2026-05-07 15:23 40.34094 1.59462 31680 ft 489 kts 332°
2026-05-07 15:24 40.37255 1.57825 32065 ft 488 kts 332°
2026-05-07 15:24 40.40424 1.56182 32397 ft 488 kts 332°
2026-05-07 15:24 40.43542 1.54563 32688 ft 489 kts 331°
2026-05-07 15:24 40.46720 1.52912 33022 ft 489 kts 331°
2026-05-07 15:25 40.49887 1.51266 33401 ft 489 kts 331°
2026-05-07 15:25 40.53052 1.49619 33714 ft 489 kts 331°
2026-05-07 15:25 40.56188 1.47985 33992 ft 489 kts 331°
2026-05-07 15:25 40.59357 1.46333 34263 ft 488 kts 331°
2026-05-07 15:26 40.62518 1.44686 34618 ft 486 kts 331°
2026-05-07 15:26 40.65659 1.43049 35005 ft 482 kts 331°
2026-05-07 15:26 40.68734 1.41447 35371 ft 479 kts 332°
2026-05-07 15:26 40.71837 1.39828 35694 ft 477 kts 332°
2026-05-07 15:27 40.74922 1.38215 35998 ft 475 kts 332°
2026-05-07 15:27 40.78004 1.36601 36315 ft 473 kts 332°
2026-05-07 15:27 40.81013 1.35024 36632 ft 471 kts 332°
2026-05-07 15:27 40.84055 1.33429 36937 ft 469 kts 332°
2026-05-07 15:28 40.87086 1.31837 37242 ft 467 kts 332°
2026-05-07 15:28 40.90104 1.30251 37560 ft 464 kts 332°
2026-05-07 15:28 40.93106 1.28671 37830 ft 463 kts 332°
2026-05-07 15:28 40.96103 1.27091 37973 ft 465 kts 332°
2026-05-07 15:29 41.02111 1.23920 37963 ft 466 kts 332°
2026-05-07 15:29 41.08126 1.20743 37958 ft 462 kts 332°
2026-05-07 15:30 41.14069 1.17682 37971 ft 462 kts 337°
2026-05-07 15:30 41.17231 1.16710 37959 ft 468 kts 348°
2026-05-07 15:30 41.20494 1.16327 37978 ft 470 kts 351°
2026-05-07 15:31 41.27008 1.15814 37971 ft 470 kts 351°
2026-05-07 15:31 41.32429 1.15286 37968 ft 470 kts 350°
2026-05-07 15:32 41.38975 1.14594 37966 ft 471 kts 351°
2026-05-07 15:32 41.45543 1.13915 37954 ft 474 kts 350°
2026-05-07 15:33 41.52101 1.13238 37949 ft 476 kts 350°
2026-05-07 15:33 41.58741 1.12531 37960 ft 477 kts 350°
2026-05-07 15:34 41.65339 1.11794 37937 ft 478 kts 350°
2026-05-07 15:34 41.71975 1.11064 37932 ft 478 kts 350°
2026-05-07 15:35 41.78583 1.10371 37933 ft 477 kts 351°
2026-05-07 15:35 41.85208 1.09683 37913 ft 476 kts 351°
2026-05-07 15:36 41.91778 1.08994 37911 ft 474 kts 351°
2026-05-07 15:36 41.98357 1.08300 37914 ft 472 kts 351°
2026-05-07 15:37 42.04858 1.07613 37915 ft 470 kts 351°
2026-05-07 15:37 42.11380 1.06921 37915 ft 468 kts 351°
2026-05-07 15:38 42.17872 1.06226 37925 ft 467 kts 351°
2026-05-07 15:38 42.24305 1.05518 37934 ft 466 kts 351°
2026-05-07 15:39 42.30775 1.04804 37943 ft 466 kts 351°
2026-05-07 15:39 42.37251 1.04090 37947 ft 466 kts 351°
2026-05-07 15:40 42.43696 1.03379 37944 ft 467 kts 351°
2026-05-07 15:40 42.50191 1.02671 37964 ft 468 kts 351°
2026-05-07 15:41 42.56722 1.01964 37962 ft 471 kts 351°
2026-05-07 15:41 42.63268 1.01254 37958 ft 472 kts 351°
2026-05-07 15:42 42.69788 1.00543 37956 ft 473 kts 351°
2026-05-07 15:42 42.76380 0.99823 37951 ft 474 kts 351°
2026-05-07 15:43 42.82963 0.99102 37961 ft 474 kts 351°
2026-05-07 15:43 42.89522 0.98382 37957 ft 475 kts 351°
2026-05-07 15:44 42.96124 0.97657 37952 ft 475 kts 351°
2026-05-07 15:44 43.02688 0.96934 37956 ft 475 kts 351°
2026-05-07 15:45 43.09275 0.96208 37954 ft 473 kts 351°
2026-05-07 15:45 43.15847 0.95481 37951 ft 472 kts 351°
2026-05-07 15:46 43.25629 0.94396 37963 ft 470 kts 352°
2026-05-07 15:47 43.32108 0.93675 37941 ft 469 kts 352°
2026-05-07 15:47 43.38604 0.92951 37947 ft 467 kts 352°
2026-05-07 15:48 43.45099 0.92225 37964 ft 466 kts 352°
2026-05-07 15:48 43.51532 0.91504 37949 ft 465 kts 352°
2026-05-07 15:49 43.57993 0.90779 37951 ft 464 kts 352°
2026-05-07 15:49 43.64406 0.90058 37961 ft 464 kts 352°
2026-05-07 15:50 43.70866 0.89330 37950 ft 464 kts 352°
2026-05-07 15:50 43.77313 0.88602 37956 ft 464 kts 352°
2026-05-07 15:51 43.83724 0.87876 37969 ft 464 kts 352°
2026-05-07 15:51 43.90070 0.86438 37958 ft 458 kts 338°
2026-05-07 15:52 43.95848 0.82950 37951 ft 454 kts 330°
2026-05-07 15:52 44.01549 0.79149 37945 ft 455 kts 330°
2026-05-07 15:53 44.07267 0.75390 37954 ft 456 kts 330°
2026-05-07 15:53 44.13003 0.71663 37941 ft 457 kts 331°
2026-05-07 15:54 44.18779 0.67915 37943 ft 457 kts 331°
2026-05-07 15:54 44.24560 0.64153 37948 ft 457 kts 331°
2026-05-07 15:55 44.30307 0.60404 37949 ft 457 kts 330°
2026-05-07 15:55 44.36076 0.56631 37958 ft 457 kts 330°
2026-05-07 15:56 44.41847 0.52850 37939 ft 457 kts 330°
2026-05-07 15:56 44.47566 0.49085 37943 ft 456 kts 330°
2026-05-07 15:57 44.53270 0.45299 37944 ft 455 kts 330°
2026-05-07 15:57 44.58979 0.41500 37949 ft 454 kts 330°
2026-05-07 15:58 44.64689 0.37694 37959 ft 453 kts 330°
2026-05-07 15:58 44.70389 0.33887 37947 ft 453 kts 330°
2026-05-07 15:59 44.76042 0.30104 37937 ft 452 kts 330°
2026-05-07 15:59 44.81720 0.26295 37941 ft 451 kts 330°
2026-05-07 16:00 44.87400 0.22477 37941 ft 451 kts 330°
2026-05-07 16:00 44.93070 0.18657 37954 ft 451 kts 330°
2026-05-07 16:01 44.98698 0.14857 37956 ft 451 kts 330°
2026-05-07 16:01 45.04377 0.11015 37958 ft 452 kts 330°
2026-05-07 16:02 45.10048 0.07173 37945 ft 452 kts 330°
2026-05-07 16:02 45.15701 0.03336 37951 ft 452 kts 330°
2026-05-07 16:03 45.21392 -0.00536 37970 ft 453 kts 330°
2026-05-07 16:03 45.27043 -0.04390 37952 ft 453 kts 330°
2026-05-07 16:04 45.32736 -0.08282 37950 ft 453 kts 330°
2026-05-07 16:04 45.38432 -0.12184 37953 ft 453 kts 330°
2026-05-07 16:05 45.44089 -0.16069 37959 ft 454 kts 330°
2026-05-07 16:05 45.49796 -0.19997 37958 ft 454 kts 330°
2026-05-07 16:06 45.55449 -0.23896 37967 ft 453 kts 330°
2026-05-07 16:06 45.61149 -0.27837 37973 ft 453 kts 330°
2026-05-07 16:07 45.66826 -0.31672 37932 ft 455 kts 335°
2026-05-07 16:07 45.72872 -0.34525 37950 ft 457 kts 339°
2026-05-07 16:08 45.78950 -0.37124 37958 ft 457 kts 339°
2026-05-07 16:08 45.85041 -0.39799 37955 ft 456 kts 339°
2026-05-07 16:09 45.91108 -0.42535 37963 ft 456 kts 339°
2026-05-07 16:09 45.97117 -0.45272 37974 ft 456 kts 339°
2026-05-07 16:10 46.03180 -0.48039 37963 ft 458 kts 339°
2026-05-07 16:10 46.09270 -0.50822 37962 ft 458 kts 339°
2026-05-07 16:11 46.15348 -0.53603 37954 ft 457 kts 339°
2026-05-07 16:11 46.21413 -0.56386 37961 ft 457 kts 339°
2026-05-07 16:12 46.27452 -0.59164 37976 ft 456 kts 339°
2026-05-07 16:12 46.33485 -0.61945 37957 ft 457 kts 339°
2026-05-07 16:13 46.39550 -0.64748 37973 ft 456 kts 339°
2026-05-07 16:13 46.45723 -0.67003 37973 ft 459 kts 349°
2026-05-07 16:14 46.52064 -0.68024 37970 ft 460 kts 351°
2026-05-07 16:14 46.58453 -0.68962 37983 ft 459 kts 351°
2026-05-07 16:15 46.64777 -0.69968 37975 ft 459 kts 350°
2026-05-07 16:15 46.71131 -0.71032 37974 ft 459 kts 350°
2026-05-07 16:16 46.77451 -0.72104 37974 ft 459 kts 350°
2026-05-07 16:16 46.83809 -0.73185 37975 ft 459 kts 350°
2026-05-07 16:17 46.90158 -0.74264 37975 ft 459 kts 350°
2026-05-07 16:17 46.96481 -0.75340 37980 ft 459 kts 350°
2026-05-07 16:18 47.02851 -0.76427 37981 ft 460 kts 350°
2026-05-07 16:18 47.09208 -0.77515 37982 ft 460 kts 350°
2026-05-07 16:19 47.15559 -0.78604 37979 ft 460 kts 350°
2026-05-07 16:19 47.21933 -0.79699 37987 ft 461 kts 350°
2026-05-07 16:20 47.28271 -0.80791 37982 ft 461 kts 350°
2026-05-07 16:20 47.33574 -0.81707 37986 ft 460 kts 350°
2026-05-07 16:21 47.39940 -0.82809 37985 ft 460 kts 350°
2026-05-07 16:21 47.46308 -0.83914 37975 ft 460 kts 350°
2026-05-07 16:22 47.52677 -0.85021 37978 ft 460 kts 350°
2026-05-07 16:22 47.59011 -0.86444 37978 ft 459 kts 347°
2026-05-07 16:23 47.65256 -0.88162 37989 ft 459 kts 346°
2026-05-07 16:23 47.71538 -0.89899 37982 ft 458 kts 346°
2026-05-07 16:24 47.77796 -0.91591 37982 ft 458 kts 347°
2026-05-07 16:24 47.84080 -0.93270 37992 ft 458 kts 347°
2026-05-07 16:25 47.90351 -0.94945 37989 ft 458 kts 347°
2026-05-07 16:25 47.96588 -0.96616 37982 ft 457 kts 347°
2026-05-07 16:26 48.02852 -0.98299 37995 ft 457 kts 347°
2026-05-07 16:26 48.09120 -0.99988 37989 ft 456 kts 347°
2026-05-07 16:27 48.15327 -1.01665 37981 ft 456 kts 347°
2026-05-07 16:27 48.21588 -1.03360 37989 ft 455 kts 347°
2026-05-07 16:28 48.27791 -1.05044 37987 ft 455 kts 347°
2026-05-07 16:28 48.34033 -1.06743 37992 ft 454 kts 347°
2026-05-07 16:29 48.40230 -1.08434 37989 ft 455 kts 347°
2026-05-07 16:29 48.46460 -1.10137 37998 ft 454 kts 347°
2026-05-07 16:30 48.52706 -1.11850 37995 ft 455 kts 347°
2026-05-07 16:30 48.58916 -1.13557 37999 ft 455 kts 347°
2026-05-07 16:31 48.65161 -1.15278 38013 ft 455 kts 347°
2026-05-07 16:31 48.71371 -1.16993 37997 ft 456 kts 347°
2026-05-07 16:32 48.77627 -1.18726 38005 ft 456 kts 347°
2026-05-07 16:32 48.83845 -1.20452 38014 ft 456 kts 347°
2026-05-07 16:33 48.90107 -1.22195 38006 ft 456 kts 347°
2026-05-07 16:33 48.96364 -1.23941 38008 ft 456 kts 347°
2026-05-07 16:34 49.02589 -1.25683 38007 ft 456 kts 347°
2026-05-07 16:34 49.08853 -1.27440 38015 ft 456 kts 347°
2026-05-07 16:35 49.15068 -1.29187 38007 ft 456 kts 347°
2026-05-07 16:35 49.21327 -1.30951 38012 ft 456 kts 347°
2026-05-07 16:36 49.27589 -1.32722 38013 ft 456 kts 347°
2026-05-07 16:36 49.33782 -1.34477 38017 ft 455 kts 347°
2026-05-07 16:37 49.40027 -1.36251 38017 ft 455 kts 347°
2026-05-07 16:37 49.46268 -1.38029 38018 ft 455 kts 347°
2026-05-07 16:38 49.52464 -1.39799 38031 ft 455 kts 347°
2026-05-07 16:38 49.58710 -1.41499 38016 ft 456 kts 352°
2026-05-07 16:39 49.65044 -1.41379 38024 ft 459 kts
2026-05-07 16:39 49.71427 -1.40665 38024 ft 459 kts
2026-05-07 16:40 49.77766 -1.40020 38028 ft 459 kts
2026-05-07 16:40 49.84166 -1.39434 38020 ft 459 kts
2026-05-07 16:41 49.90516 -1.38863 38024 ft 459 kts
2026-05-07 16:41 49.96913 -1.38282 38037 ft 459 kts
2026-05-07 16:42 50.03284 -1.37419 38015 ft 460 kts
2026-05-07 16:42 50.09614 -1.35794 38036 ft 461 kts
2026-05-07 16:43 50.15910 -1.34107 38036 ft 460 kts
2026-05-07 16:43 50.22208 -1.32507 38041 ft 460 kts
2026-05-07 16:44 50.28540 -1.30936 38044 ft 460 kts
2026-05-07 16:44 50.34876 -1.29362 38037 ft 460 kts
2026-05-07 16:45 50.41212 -1.27779 38035 ft 460 kts
2026-05-07 16:45 50.47493 -1.26166 38035 ft 460 kts 11°
2026-05-07 16:46 50.53487 -1.22569 38047 ft 463 kts 30°
2026-05-07 16:46 50.58896 -1.17133 38032 ft 463 kts 32°
2026-05-07 16:47 50.64308 -1.11582 38057 ft 463 kts 32°
2026-05-07 16:47 50.69753 -1.06100 38043 ft 463 kts 31°
2026-05-07 16:48 50.75176 -1.00669 38045 ft 463 kts 31°
2026-05-07 16:48 50.80593 -0.95238 38050 ft 462 kts 30°
2026-05-07 16:48 50.83446 -0.92919 38034 ft 460 kts 19°
2026-05-07 16:49 50.86464 -0.91259 38069 ft 459 kts 16°
2026-05-07 16:49 50.92581 -0.88212 38054 ft 459 kts 15°
2026-05-07 16:50 50.98646 -0.85176 38048 ft 460 kts 16°
2026-05-07 16:50 51.04740 -0.82045 38049 ft 460 kts 16°
2026-05-07 16:51 51.10794 -0.78894 38044 ft 460 kts 17°
2026-05-07 16:51 51.16892 -0.75706 38049 ft 460 kts 17°
2026-05-07 16:52 51.22978 -0.72518 38044 ft 460 kts 17°
2026-05-07 16:52 51.29027 -0.69342 38047 ft 460 kts 17°
2026-05-07 16:53 51.35110 -0.66139 38050 ft 460 kts 17°
2026-05-07 16:53 51.41185 -0.62932 38048 ft 460 kts 17°
2026-05-07 16:54 51.47237 -0.59728 38047 ft 459 kts 17°
2026-05-07 16:54 51.53313 -0.56502 38047 ft 459 kts 17°
2026-05-07 16:55 51.59392 -0.53266 38052 ft 459 kts 17°
2026-05-07 16:55 51.65420 -0.50047 38049 ft 459 kts 17°
2026-05-07 16:56 51.71487 -0.46799 38068 ft 459 kts 17°
2026-05-07 16:56 51.80754 -0.43589 37485 ft 453 kts 349°
2026-05-07 16:57 51.83761 -0.44885 37239 ft 446 kts 333°
2026-05-07 16:57 51.86456 -0.47326 36991 ft 442 kts 325°
2026-05-07 16:57 51.89048 -0.50021 36435 ft 441 kts 325°
2026-05-07 16:57 51.91641 -0.52674 35933 ft 439 kts 326°
2026-05-07 16:58 51.94225 -0.55244 35349 ft 440 kts 326°
2026-05-07 16:58 51.96856 -0.57814 34775 ft 441 kts 327°
2026-05-07 16:58 51.99497 -0.60381 34172 ft 442 kts 327°
2026-05-07 16:58 52.02158 -0.62970 33465 ft 443 kts 326°
2026-05-07 16:59 52.04804 -0.65552 32799 ft 443 kts 327°
2026-05-07 16:59 52.07418 -0.68112 32135 ft 444 kts 327°
2026-05-07 16:59 52.10066 -0.70709 31464 ft 444 kts 327°
2026-05-07 16:59 52.12700 -0.73296 31024 ft 439 kts 327°
2026-05-07 17:00 52.15301 -0.75862 30541 ft 435 kts 326°
2026-05-07 17:00 52.17854 -0.78393 30080 ft 431 kts 326°
2026-05-07 17:00 52.20411 -0.80932 29553 ft 428 kts 326°
2026-05-07 17:00 52.22944 -0.83449 29086 ft 423 kts 326°
2026-05-07 17:01 52.25453 -0.85943 28599 ft 418 kts 326°
2026-05-07 17:01 52.27899 -0.88368 28135 ft 415 kts 326°
2026-05-07 17:01 52.30365 -0.90812 27648 ft 412 kts 327°
2026-05-07 17:01 52.32813 -0.93241 27173 ft 409 kts 327°
2026-05-07 17:02 52.35246 -0.95660 26715 ft 407 kts 327°
2026-05-07 17:02 52.37640 -0.98043 26263 ft 404 kts 327°
2026-05-07 17:02 52.40034 -1.00429 25822 ft 402 kts 326°
2026-05-07 17:02 52.42420 -1.02811 25376 ft 400 kts 326°
2026-05-07 17:03 52.44796 -1.05187 24901 ft 397 kts 326°
2026-05-07 17:03 52.47149 -1.07541 24470 ft 395 kts 326°
2026-05-07 17:03 52.49465 -1.09864 24031 ft 394 kts 326°
2026-05-07 17:03 52.51802 -1.12229 23590 ft 392 kts 326°
2026-05-07 17:04 52.54122 -1.14586 23074 ft 390 kts 326°
2026-05-07 17:04 52.56406 -1.16908 22599 ft 388 kts 326°
2026-05-07 17:04 52.58698 -1.19231 22149 ft 385 kts 326°
2026-05-07 17:04 52.60980 -1.21540 21712 ft 382 kts 326°
2026-05-07 17:05 52.63245 -1.23834 21252 ft 380 kts 326°
2026-05-07 17:05 52.65474 -1.26093 20823 ft 378 kts 326°
2026-05-07 17:05 52.67718 -1.28373 20389 ft 376 kts 326°
2026-05-07 17:05 52.69945 -1.30639 19959 ft 375 kts 326°
2026-05-07 17:06 52.72138 -1.32870 19530 ft 373 kts 326°
2026-05-07 17:06 52.74348 -1.35118 19124 ft 372 kts 326°
2026-05-07 17:06 52.76542 -1.37351 18705 ft 369 kts 326°
2026-05-07 17:06 52.78734 -1.39586 18258 ft 368 kts 326°
2026-05-07 17:07 52.80907 -1.41803 17777 ft 366 kts 326°
2026-05-07 17:07 52.82340 -1.43268 17469 ft 364 kts 326°
2026-05-07 17:07 52.84490 -1.45467 17012 ft 361 kts 326°
2026-05-07 17:07 52.87303 -1.48349 16470 ft 357 kts 326°
2026-05-07 17:08 52.89410 -1.50511 16051 ft 355 kts 326°
2026-05-07 17:08 52.90828 -1.51967 15774 ft 354 kts 326°
2026-05-07 17:08 52.92921 -1.54119 15368 ft 353 kts 326°
2026-05-07 17:08 52.94976 -1.56234 14961 ft 352 kts 326°
2026-05-07 17:09 52.97054 -1.58376 14550 ft 351 kts 326°
2026-05-07 17:09 52.99128 -1.60515 14141 ft 351 kts 326°
2026-05-07 17:09 53.01205 -1.62659 13730 ft 351 kts 326°
2026-05-07 17:09 53.03281 -1.64805 13269 ft 350 kts 326°
2026-05-07 17:10 53.05307 -1.66963 12831 ft 348 kts 320°
2026-05-07 17:10 53.06993 -1.69798 12449 ft 340 kts 306°
2026-05-07 17:10 53.08477 -1.72833 12023 ft 338 kts 307°
2026-05-07 17:10 53.09981 -1.75829 11632 ft 335 kts 307°
2026-05-07 17:11 53.11489 -1.78787 11246 ft 333 kts 307°
2026-05-07 17:11 53.12993 -1.81715 10852 ft 330 kts 308°
2026-05-07 17:11 53.14462 -1.84568 10475 ft 328 kts 307°
2026-05-07 17:11 53.15946 -1.87454 10087 ft 325 kts 307°
2026-05-07 17:12 53.17402 -1.90288 9957 ft 314 kts 307°
2026-05-07 17:12 53.18798 -1.93005 9922 ft 301 kts 307°
2026-05-07 17:12 53.20131 -1.95605 9852 ft 290 kts 307°
2026-05-07 17:12 53.21430 -1.98144 9693 ft 282 kts 307°
2026-05-07 17:13 53.22670 -2.00558 9608 ft 274 kts 309°
2026-05-07 17:13 53.24219 -2.02432 9400 ft 276 kts 335°
2026-05-07 17:13 53.26102 -2.02950 9005 ft 284 kts
2026-05-07 17:13 53.28014 -2.02062 8636 ft 288 kts 22°
2026-05-07 17:14 53.29853 -2.00666 8250 ft 291 kts 24°
2026-05-07 17:14 53.31689 -1.99207 7862 ft 293 kts 25°
2026-05-07 17:14 53.33498 -1.97601 7483 ft 294 kts 29°
2026-05-07 17:14 53.35278 -1.95892 7113 ft 296 kts 30°
2026-05-07 17:15 53.36984 -1.94028 6729 ft 298 kts 42°
2026-05-07 17:15 53.38425 -1.91519 6378 ft 299 kts 49°
2026-05-07 17:15 53.39810 -1.88892 5986 ft 301 kts 50°
2026-05-07 17:15 53.41197 -1.86239 5594 ft 303 kts 50°
2026-05-07 17:16 53.42590 -1.83573 5271 ft 302 kts 50°
2026-05-07 17:16 53.44075 -1.81127 5037 ft 299 kts 34°
2026-05-07 17:16 53.45953 -1.79877 4915 ft 292 kts
2026-05-07 17:16 53.47934 -1.80120 4758 ft 283 kts 340°
2026-05-07 17:17 53.49597 -1.81697 4635 ft 271 kts 316°
2026-05-07 17:17 53.50658 -1.84206 4488 ft 259 kts 286°
2026-05-07 17:17 53.50878 -1.87111 4365 ft 247 kts 263°
2026-05-07 17:17 53.50729 -1.89959 4244 ft 241 kts 261°
2026-05-07 17:18 53.50551 -1.92708 4092 ft 237 kts 260°
2026-05-07 17:18 53.50359 -1.95424 4006 ft 230 kts 257°
2026-05-07 17:18 53.49754 -1.97780 3995 ft 214 kts 229°
2026-05-07 17:18 53.48859 -1.99686 4011 ft 201 kts 230°
2026-05-07 17:19 53.48018 -2.01496 3937 ft 191 kts 228°
2026-05-07 17:19 53.47192 -2.03220 3729 ft 189 kts 228°
2026-05-07 17:19 53.46364 -2.04923 3493 ft 187 kts 227°
2026-05-07 17:19 53.45545 -2.06602 3247 ft 186 kts 227°
2026-05-07 17:20 53.44728 -2.08277 2988 ft 184 kts 227°
2026-05-07 17:20 53.43936 -2.09903 2750 ft 180 kts 227°
2026-05-07 17:20 53.43147 -2.11523 2495 ft 177 kts 227°
2026-05-07 17:20 53.42377 -2.13104 2256 ft 173 kts 227°
2026-05-07 17:21 53.41627 -2.14644 2029 ft 167 kts 227°
2026-05-07 17:21 53.40919 -2.16100 1798 ft 156 kts 226°
2026-05-07 17:21 53.40252 -2.17472 1613 ft 149 kts 226°
2026-05-07 17:21 53.39621 -2.18769 1431 ft 141 kts 226°
2026-05-07 17:22 53.38997 -2.20048 1209 ft 142 kts 227°
2026-05-07 17:22 53.38370 -2.21335 1014 ft 143 kts 228°
2026-05-07 17:22 53.37739 -2.22634 811 ft 143 kts 227°
2026-05-07 17:22 53.37111 -2.23901 638 ft 144 kts 228°
2026-05-07 17:23 53.36474 -2.25211 405 ft 145 kts 230°
2026-05-07 17:23 53.35856 -2.26499 270 ft 133 kts 231°
2026-05-07 17:23 53.35412 -2.27417 243 ft 71 kts 231°
2026-05-07 17:23 53.35171 -2.27917 235 ft 36 kts 231°
2026-05-07 17:24 53.35090 -2.28084 232 ft 9 kts 233°
2026-05-07 17:24 53.35109 -2.28167 231 ft 9 kts 322°
2026-05-07 17:24 53.35174 -2.28203 229 ft 10 kts
2026-05-07 17:24 53.35238 -2.28191 233 ft 9 kts
2026-05-07 17:25 53.35287 -2.28179 232 ft 6 kts
2026-05-07 17:25 53.35306 -2.28162 234 ft 1 kts 40°
2026-05-07 17:25 53.35307 -2.28161 234 ft 0 kts 41°
2026-05-07 17:25 53.35324 -2.28134 237 ft 11 kts 45°
2026-05-07 17:26 53.35383 -2.28038 238 ft 12 kts 44°
2026-05-07 17:26 53.35442 -2.27943 237 ft 12 kts 44°
2026-05-07 17:26 53.35499 -2.27850 239 ft 11 kts 44°
2026-05-07 17:26 53.35561 -2.27751 238 ft 13 kts 44°
2026-05-07 17:27 53.35623 -2.27649 243 ft 12 kts 44°
2026-05-07 17:27 53.35680 -2.27544 247 ft 12 kts 50°
2026-05-07 17:27 53.35732 -2.27436 254 ft 12 kts 51°
2026-05-07 17:27 53.35786 -2.27325 254 ft 12 kts 51°
2026-05-07 17:28 53.35819 -2.27204 254 ft 12 kts 98°
2026-05-07 17:28 53.35805 -2.27077 254 ft 11 kts 72°
2026-05-07 17:28 53.35844 -2.26960 255 ft 12 kts 55°
2026-05-07 17:28 53.35895 -2.26851 255 ft 12 kts 52°
2026-05-07 17:29 53.35937 -2.26741 255 ft 11 kts 58°
2026-05-07 17:29 53.35982 -2.26741 255 ft 8 kts 307°
2026-05-07 17:29 53.36003 -2.26819 254 ft 7 kts 298°
2026-05-07 17:29 53.36025 -2.26866 254 ft 4 kts 314°
2026-05-07 17:30 53.36036 -2.26884 254 ft 1 kts 314°
2026-05-07 17:30 53.36036 -2.26885 254 ft 0 kts 314°